TimePDT,TemperatureF,Dew PointF,Humidity,Sea Level PressureIn,VisibilityMPH,Wind Direction,Wind SpeedMPH,Gust SpeedMPH,PrecipitationIn,Events,Conditions,WindDirDegrees,DateUTC
12:53 AM,54.0,52.0,93,29.99,10.0,SSE,5.8,-,N/A,,Clear,150,2013-08-16 07:53:00
1:53 AM,55.0,54.0,96,29.99,10.0,Calm,Calm,-,N/A,,Mostly Cloudy,0,2013-08-16 08:53:00
2:26 AM,55.0,54.0,96,29.99,10.0,SSE,4.6,-,N/A,,Scattered Clouds,150,2013-08-16 09:26:00
2:53 AM,55.9,54.0,93,29.99,10.0,SW,5.8,-,N/A,,Clear,230,2013-08-16 09:53:00
3:53 AM,53.1,52.0,96,29.99,10.0,SW,3.5,-,N/A,,Clear,220,2013-08-16 10:53:00
4:53 AM,55.0,53.1,93,29.98,10.0,Variable,3.5,-,N/A,,Partly Cloudy,0,2013-08-16 11:53:00
5:53 AM,55.9,53.1,90,29.99,10.0,SW,5.8,-,N/A,,Clear,230,2013-08-16 12:53:00
6:53 AM,55.0,53.1,93,29.99,10.0,SW,4.6,-,N/A,,Clear,230,2013-08-16 13:53:00
7:53 AM,62.1,57.9,86,29.99,10.0,Calm,Calm,-,N/A,,Clear,0,2013-08-16 14:53:00
8:53 AM,63.0,57.9,84,30.00,10.0,Calm,Calm,-,N/A,,Clear,0,2013-08-16 15:53:00
9:50 AM,59.0,55.4,88,30.01,3.0,Variable,4.6,-,N/A,,Scattered Clouds,0,2013-08-16 16:50:00
9:53 AM,59.0,55.9,90,30.01,2.5,NNE,6.9,-,N/A,,Scattered Clouds,20,2013-08-16 16:53:00
9:56 AM,57.9,55.0,90,30.01,1.5,North,8.1,-,N/A,,Mostly Cloudy,350,2013-08-16 16:56:00
9:59 AM,57.0,54.0,89,30.02,0.8,North,6.9,-,N/A,,Mist,350,2013-08-16 16:59:00
10:10 AM,55.9,54.0,93,30.02,0.2,North,3.5,-,N/A,Fog,Fog,350,2013-08-16 17:10:00
10:17 AM,55.9,55.0,97,30.02,0.5,Calm,Calm,-,N/A,Fog,Fog,0,2013-08-16 17:17:00
10:35 AM,57.9,55.9,93,30.02,0.2,Calm,Calm,-,N/A,Fog,Fog,0,2013-08-16 17:35:00
10:43 AM,57.9,55.9,93,30.02,1.0,Calm,Calm,-,N/A,,Overcast,0,2013-08-16 17:43:00
10:45 AM,59.0,55.9,90,30.02,3.0,Calm,Calm,-,N/A,,Overcast,0,2013-08-16 17:45:00
10:53 AM,61.0,55.9,83,30.02,10.0,Calm,Calm,-,N/A,,Overcast,0,2013-08-16 17:53:00
11:03 AM,62.1,55.9,80,30.02,10.0,Variable,4.6,-,N/A,,Mostly Cloudy,0,2013-08-16 18:03:00
11:53 AM,66.9,57.0,70,30.01,10.0,NNE,5.8,-,N/A,,Overcast,20,2013-08-16 18:53:00
12:53 PM,64.9,57.9,78,30.01,10.0,NNE,4.6,-,N/A,,Partly Cloudy,30,2013-08-16 19:53:00
1:53 PM,70.0,59.0,68,30.01,10.0,Variable,4.6,-,N/A,,Clear,0,2013-08-16 20:53:00
2:53 PM,68.0,57.9,70,30.01,10.0,NNW,8.1,-,N/A,,Clear,340,2013-08-16 21:53:00
3:53 PM,73.0,57.9,59,30.00,10.0,Variable,5.8,-,N/A,,Clear,0,2013-08-16 22:53:00
4:53 PM,70.0,57.0,63,30.00,10.0,NW,9.2,-,N/A,,Clear,320,2013-08-16 23:53:00
5:53 PM,70.0,55.0,59,30.00,10.0,WNW,9.2,-,N/A,,Clear,300,2013-08-17 00:53:00
6:53 PM,69.1,55.9,63,29.99,10.0,West,9.2,-,N/A,,Scattered Clouds,280,2013-08-17 01:53:00
7:53 PM,66.0,55.0,68,30.00,10.0,West,8.1,-,N/A,,Clear,270,2013-08-17 02:53:00
8:53 PM,66.0,55.0,68,30.00,10.0,WSW,8.1,-,N/A,,Mostly Cloudy,250,2013-08-17 03:53:00
9:53 PM,64.9,55.0,70,30.01,10.0,West,6.9,-,N/A,,Overcast,270,2013-08-17 04:53:00
10:53 PM,64.9,55.0,70,30.01,10.0,West,6.9,-,N/A,,Overcast,270,2013-08-17 05:53:00
11:53 PM,64.9,55.0,70,30.00,10.0,West,6.9,-,N/A,,Overcast,260,2013-08-17 06:53:00